When you browse on this site, cookies collect data to enhance your experience and personalize the content and advertising you see.
Visit our Privacy Policy to learn more. By continuing to use the site, you agree to this use of cookies and data.
  • en Suisse
  • Liste des pays
  • À 7 jours
  • Température de l'eau
  • Carte satellitaire
  • Carte météo
  • Widgets météo
  • user-avatar
    Se connecter

    Météo par heure à Serhiivka

    Ce jour, 15 Décembre, Samedi

    Heure Température Précipitation Vent Pression Humidité
    00:00 -1°C° 0 mm 1 m/s 755 mmHg 91%
    01:00 -1°C° 0 mm 1 m/s 755 mmHg 91%
    02:00 -2°C° 0 mm 1 m/s 755 mmHg 91%
    03:00 -2°C° 0 mm 1 m/s 755 mmHg 92%
    04:00 -2°C° 0 mm 1 m/s 756 mmHg 92%
    05:00 -5°C° 0 mm 2 m/s 756 mmHg 92%
    06:00 -5°C° 0 mm 2 m/s 756 mmHg 92%
    07:00 -5°C° 0 mm 2 m/s 756 mmHg 92%
    08:00 -5°C° 0 mm 2 m/s 756 mmHg 92%
    09:00 -5°C° 0 mm 2 m/s 756 mmHg 92%
    10:00 -5°C° 0 mm 2 m/s 757 mmHg 89%
    11:00 -4°C° 0 mm 2 m/s 757 mmHg 87%
    12:00 -4°C° 0 mm 2 m/s 757 mmHg 84%
    13:00 -3°C° 0.1 mm 2 m/s 757 mmHg 85%
    14:00 -3°C° 0.1 mm 2 m/s 758 mmHg 85%
    15:00 -4°C° 0.1 mm 3 m/s 758 mmHg 86%
    16:00 -4°C° 0 mm 3 m/s 758 mmHg 86%
    17:00 -5°C° 0 mm 3 m/s 758 mmHg 87%
    18:00 -5°C° 0 mm 3 m/s 759 mmHg 87%
    19:00 -5°C° 0 mm 4 m/s 759 mmHg 86%
    20:00 -5°C° 0 mm 4 m/s 759 mmHg 85%
    21:00 -5°C° 0 mm 4 m/s 759 mmHg 84%
    22:00 -7°C° 0 mm 4 m/s 760 mmHg 84%
    23:00 -6°C° 0 mm 3 m/s 760 mmHg 84%

    Demain, 16 Décembre, Dimanche

    Heure Température Précipitation Vent Pression Humidité
    00:00 -6°C° 0 mm 3 m/s 760 mmHg 83%
    01:00 -6°C° 0 mm 3 m/s 761 mmHg 85%
    02:00 -6°C° 0 mm 3 m/s 761 mmHg 86%
    03:00 -6°C° 0 mm 3 m/s 761 mmHg 87%
    04:00 -7°C° 0 mm 3 m/s 761 mmHg 88%
    05:00 -7°C° 0 mm 3 m/s 761 mmHg 89%
    06:00 -7°C° 0 mm 3 m/s 761 mmHg 90%
    07:00 -7°C° 0 mm 3 m/s 762 mmHg 89%
    08:00 -8°C° 0 mm 4 m/s 762 mmHg 88%
    09:00 -8°C° 0 mm 4 m/s 762 mmHg 87%
    10:00 -7°C° 0 mm 4 m/s 762 mmHg 85%
    11:00 -7°C° 0 mm 4 m/s 762 mmHg 84%
    12:00 -7°C° 0 mm 4 m/s 763 mmHg 82%
    13:00 -7°C° 0 mm 4 m/s 762 mmHg 82%
    14:00 -7°C° 0 mm 4 m/s 762 mmHg 83%
    15:00 -7°C° 0 mm 4 m/s 762 mmHg 83%
    16:00 -7°C° 0 mm 4 m/s 762 mmHg 84%
    17:00 -7°C° 0 mm 4 m/s 762 mmHg 85%
    18:00 -8°C° 0 mm 4 m/s 762 mmHg 87%
    19:00 -8°C° 0 mm 4 m/s 762 mmHg 87%
    20:00 -8°C° 0 mm 4 m/s 762 mmHg 88%
    21:00 -8°C° 0 mm 4 m/s 763 mmHg 89%
    22:00 -8°C° 0 mm 4 m/s 762 mmHg 89%
    23:00 -8°C° 0 mm 4 m/s 762 mmHg 89%

    Après-demain, 17 Décembre, Lundi

    Heure Température Précipitation Vent Pression Humidité
    00:00 -9°C° 0 mm 4 m/s 762 mmHg 89%
    01:00 -9°C° 0 mm 4 m/s 762 mmHg 89%
    02:00 -9°C° 0 mm 4 m/s 762 mmHg 89%
    03:00 -9°C° 0 mm 4 m/s 762 mmHg 89%
    04:00 -9°C° 0 mm 4 m/s 762 mmHg 89%
    05:00 -9°C° 0 mm 4 m/s 762 mmHg 89%
    06:00 -9°C° 0 mm 4 m/s 761 mmHg 89%
    07:00 -9°C° 0 mm 4 m/s 761 mmHg 89%
    08:00 -10°C° 0 mm 5 m/s 762 mmHg 89%
    09:00 -10°C° 0 mm 5 m/s 762 mmHg 88%
    10:00 -10°C° 0 mm 5 m/s 761 mmHg 87%
    11:00 -10°C° 0 mm 5 m/s 761 mmHg 86%
    12:00 -10°C° 0 mm 5 m/s 761 mmHg 85%
    13:00 -8°C° 0 mm 5 m/s 761 mmHg 85%
    14:00 -8°C° 0 mm 5 m/s 761 mmHg 84%
    15:00 -8°C° 0 mm 5 m/s 760 mmHg 84%
    16:00 -8°C° 0 mm 5 m/s 760 mmHg 85%
    17:00 -8°C° 0 mm 5 m/s 760 mmHg 86%
    18:00 -10°C° 0 mm 5 m/s 760 mmHg 87%
    19:00 -10°C° 0 mm 5 m/s 761 mmHg 87%
    20:00 -10°C° 0 mm 5 m/s 761 mmHg 87%
    21:00 -10°C° 0 mm 5 m/s 761 mmHg 87%
    22:00 -10°C° 0 mm 5 m/s 761 mmHg 87%
    23:00 -10°C° 0 mm 5 m/s 761 mmHg 87%

    18 Décembre, Mardi

    Heure Température Précipitation Vent Pression Humidité
    00:00 -10°C° 0 mm 5 m/s 761 mmHg 87%
    01:00 -10°C° 0 mm 5 m/s 761 mmHg 87%
    02:00 -10°C° 0 mm 5 m/s 761 mmHg 86%
    03:00 -9°C° 0 mm 4 m/s 761 mmHg 86%
    04:00 -10°C° 0 mm 4 m/s 760 mmHg 87%
    05:00 -10°C° 0 mm 4 m/s 760 mmHg 87%
    06:00 -10°C° 0 mm 4 m/s 760 mmHg 87%
    07:00 -11°C° 0 mm 4 m/s 760 mmHg 87%
    08:00 -11°C° 0 mm 4 m/s 761 mmHg 87%
    09:00 -12°C° 0 mm 5 m/s 761 mmHg 87%
    10:00 -12°C° 0 mm 5 m/s 761 mmHg 85%
    11:00 -11°C° 0 mm 5 m/s 761 mmHg 84%
    12:00 -11°C° 0 mm 5 m/s 761 mmHg 82%
    13:00 -11°C° 0 mm 5 m/s 760 mmHg 82%
    14:00 -11°C° 0 mm 5 m/s 760 mmHg 82%
    15:00 -10°C° 0 mm 5 m/s 760 mmHg 82%
    16:00 -10°C° 0 mm 4 m/s 760 mmHg 83%
    17:00 -10°C° 0 mm 4 m/s 760 mmHg 85%
    18:00 -11°C° 0 mm 4 m/s 760 mmHg 86%
    19:00 -12°C° 0 mm 5 m/s 760 mmHg 87%
    20:00 -12°C° 0 mm 5 m/s 760 mmHg 87%
    21:00 -12°C° 0 mm 5 m/s 760 mmHg 87%
    22:00 -12°C° 0 mm 5 m/s 760 mmHg 87%
    23:00 -11°C° 0 mm 4 m/s 760 mmHg 87%

    19 Décembre, Mercredi

    Heure Température Précipitation Vent Pression Humidité
    00:00 -11°C° 0 mm 4 m/s 760 mmHg 87%
    01:00 -11°C° 0 mm 4 m/s 760 mmHg 87%
    02:00 -11°C° 0 mm 4 m/s 760 mmHg 87%
    03:00 -11°C° 0 mm 4 m/s 760 mmHg 87%
    04:00 -11°C° 0 mm 4 m/s 760 mmHg 87%
    05:00 -12°C° 0 mm 5 m/s 760 mmHg 87%
    06:00 -12°C° 0 mm 5 m/s 760 mmHg 87%
    07:00 -12°C° 0 mm 5 m/s 760 mmHg 87%
    08:00 -12°C° 0 mm 5 m/s 760 mmHg 87%
    09:00 -12°C° 0 mm 5 m/s 760 mmHg 87%
    10:00 -12°C° 0 mm 5 m/s 760 mmHg 85%
    11:00 -11°C° 0 mm 5 m/s 760 mmHg 84%
    12:00 -11°C° 0 mm 5 m/s 760 mmHg 83%
    13:00 -11°C° 0 mm 5 m/s 760 mmHg 83%
    14:00 -11°C° 0 mm 5 m/s 759 mmHg 83%
    15:00 -10°C° 0 mm 5 m/s 759 mmHg 83%
    16:00 -11°C° 0 mm 5 m/s 759 mmHg 83%
    17:00 -11°C° 0 mm 5 m/s 759 mmHg 84%
    18:00 -11°C° 0 mm 5 m/s 759 mmHg 85%
    19:00 -11°C° 0 mm 5 m/s 760 mmHg 86%
    20:00 -11°C° 0 mm 5 m/s 760 mmHg 86%
    21:00 -11°C° 0 mm 5 m/s 760 mmHg 86%
    22:00 -11°C° 0 mm 5 m/s 759 mmHg 86%
    23:00 -10°C° 0 mm 5 m/s 759 mmHg 86%

    20 Décembre, Jeudi

    Heure Température Précipitation Vent Pression Humidité
    00:00 -10°C° 0 mm 5 m/s 759 mmHg 86%
    01:00 -10°C° 0 mm 5 m/s 759 mmHg 86%
    02:00 -10°C° 0 mm 5 m/s 759 mmHg 85%
    03:00 -10°C° 0 mm 5 m/s 759 mmHg 84%
    04:00 -10°C° 0 mm 5 m/s 759 mmHg 86%
    05:00 -10°C° 0 mm 5 m/s 759 mmHg 87%
    06:00 -10°C° 0 mm 5 m/s 759 mmHg 88%
    07:00 -10°C° 0 mm 5 m/s 759 mmHg 88%
    08:00 -10°C° 0 mm 5 m/s 760 mmHg 88%
    09:00 -10°C° 0 mm 5 m/s 760 mmHg 88%
    10:00 -8°C° 0 mm 5 m/s 760 mmHg 87%
    11:00 -8°C° 0 mm 5 m/s 760 mmHg 86%
    12:00 -7°C° 0 mm 5 m/s 760 mmHg 86%
    13:00 -7°C° 0 mm 5 m/s 760 mmHg 85%
    14:00 -7°C° 0 mm 5 m/s 760 mmHg 85%
    15:00 -6°C° 0 mm 5 m/s 759 mmHg 84%
    16:00 -6°C° 0 mm 5 m/s 760 mmHg 86%
    17:00 -6°C° 0 mm 5 m/s 760 mmHg 87%
    18:00 -7°C° 0 mm 5 m/s 760 mmHg 88%
    19:00 -7°C° 0 mm 5 m/s 760 mmHg 88%
    20:00 -7°C° 0 mm 5 m/s 761 mmHg 88%
    21:00 -7°C° 0 mm 5 m/s 761 mmHg 89%
    22:00 -7°C° 0 mm 4 m/s 761 mmHg 89%
    23:00 -7°C° 0 mm 4 m/s 761 mmHg 89%
    Voir plus